Weather History for Rensselaer, IN

Change the Weather History Date:

Saturday, August 16, 2014

  Actual Average (KVPZ) Record (KVPZ)
Temperature  
Mean Temperature 66 °F 71 °F  
Max Temperature 78 °F 80 °F 92 °F (2009)
Min Temperature 53 °F 61 °F 48 °F (2004)
Degree Days  
Heating Degree Days 0 0  
Month to date heating degree days 0  
Since 1 June heating degree days 45  
Since 1 July heating degree days 4  
Cooling Degree Days 0 6  
Month to date cooling degree days 106  
Year to date cooling degree days 557  
Since 1 June cooling degree days 510  
Growing Degree Days 16 (Base 50)    
Moisture  
Dew Point 64 °F    
Average Humidity 92    
Maximum Humidity 100    
Minimum Humidity 74    
Precipitation  
Precipitation 0.00 in 0.15 in 0.50 in (2012)
Month to date precipitation 2.16  
Year to date precipitation 23.39  
Sea Level Pressure  
Sea Level Pressure 29.96 in    
Wind  
Wind Speed 2 mph (SSW)    
Max Wind Speed 14 mph    
Max Gust Speed 21 mph    
Visibility 10 miles    
Events Rain    
T = Trace of Precipitation, MM = Missing Value Source: NWS Daily Summary

Daily Weather History Graph

Daily Weather History Graph

Search for Another Location

Airport:

Trip Planner

Search our weather history database for the weather conditions in past years. The results will help you decide how hot, cold, wet, or windy it might be!

Date:

Astronomy

Aug. 16, 2014 Rise Set
Actual Time 5:59 AM CDT 7:45 PM CDT
Civil Twilight 5:30 AM CDT 8:14 PM CDT
Nautical Twilight 4:54 AM CDT 8:50 PM CDT
Astronomical Twilight 4:16 AM CDT 9:28 PM CDT
Moon 11:25 PM CDT (8/16) 12:48 PM CDT (8/16)
Length of Visible Light 14h 44m
Length of Day
13h 46m
Waning Gibbous, 58% of the Moon is Illuminated
Aug 16
Waning Gibbous
Aug 17
Last Quarter
Aug 25
New
Sep 2
First Quarter
Sep 8
Full

Hourly Weather History & Observations

Time (CDT) Temp. Dew Point Humidity Pressure Visibility Wind Dir Wind Speed Gust Speed Precip Events Conditions
12:15 AM 53.6 °F 53.6 °F 100% 30.00 in 10.0 mi Calm Calm - N/A   Clear
12:35 AM 53.6 °F 53.6 °F 100% 30.00 in 10.0 mi Calm Calm - N/A   Clear
12:55 AM 53.6 °F 53.6 °F 100% 29.99 in 10.0 mi Calm Calm - N/A   Clear
1:15 AM 53.6 °F 53.6 °F 100% 29.98 in 10.0 mi Calm Calm - N/A   Clear
1:35 AM 53.6 °F 53.6 °F 100% 29.98 in 10.0 mi Calm Calm - N/A   Clear
1:55 AM 53.6 °F 53.6 °F 100% 29.98 in 10.0 mi Calm Calm - N/A   Clear
2:15 AM 53.6 °F 53.6 °F 100% 29.96 in 10.0 mi Calm Calm - N/A   Clear
2:35 AM 53.6 °F 53.6 °F 100% 29.96 in 10.0 mi Calm Calm - N/A   Clear
2:55 AM 53.6 °F 53.6 °F 100% 29.96 in 10.0 mi ENE 3.5 mph - N/A   Clear
3:15 AM 53.6 °F 53.6 °F 100% 29.96 in 10.0 mi Calm Calm - N/A   Clear
3:35 AM 53.6 °F 53.6 °F 100% 29.96 in 10.0 mi Calm Calm - N/A   Clear
3:55 AM 53.6 °F 53.6 °F 100% 29.96 in 10.0 mi Calm Calm - N/A   Scattered Clouds
4:15 AM 53.6 °F 53.6 °F 100% 29.97 in 10.0 mi Calm Calm - N/A   Scattered Clouds
4:35 AM 53.6 °F 53.6 °F 100% 29.97 in 10.0 mi Calm Calm - N/A   Scattered Clouds
4:55 AM 53.6 °F 53.6 °F 100% 29.97 in 10.0 mi Calm Calm - N/A   Clear
5:15 AM 53.6 °F 53.6 °F 100% 29.97 in 10.0 mi Calm Calm - N/A   Clear
5:35 AM 53.6 °F 53.6 °F 100% 29.97 in 10.0 mi Calm Calm - N/A   Clear
5:55 AM 53.6 °F 53.6 °F 100% 29.96 in 10.0 mi Calm Calm - N/A   Scattered Clouds
6:15 AM 53.6 °F 53.6 °F 100% 29.96 in 10.0 mi SE 3.5 mph - N/A   Scattered Clouds
6:35 AM 57.2 °F 55.4 °F 94% 29.96 in 10.0 mi Calm Calm - N/A   Mostly Cloudy
6:55 AM 59.0 °F 57.2 °F 94% 29.96 in 10.0 mi Calm Calm - N/A   Overcast
7:15 AM 60.8 °F 59.0 °F 94% 29.96 in 10.0 mi Calm Calm - N/A   Overcast
7:35 AM 60.8 °F 59.0 °F 94% 29.96 in 10.0 mi Calm Calm - N/A   Overcast
7:55 AM 62.6 °F 60.8 °F 94% 29.95 in 10.0 mi SE 4.6 mph - N/A   Overcast
8:15 AM 62.6 °F 60.8 °F 94% 29.96 in 10.0 mi South 5.8 mph - N/A   Mostly Cloudy
8:35 AM 64.4 °F 62.6 °F 94% 29.96 in 10.0 mi SSE 6.9 mph - N/A   Mostly Cloudy
8:55 AM 68.0 °F 64.4 °F 88% 29.96 in 10.0 mi South 5.8 mph - N/A   Mostly Cloudy
9:15 AM 69.8 °F 66.2 °F 88% 29.95 in 10.0 mi SSW 5.8 mph - N/A   Mostly Cloudy
9:35 AM 71.6 °F 68.0 °F 88% 29.95 in 10.0 mi SSW 8.1 mph - N/A   Scattered Clouds
9:55 AM 71.6 °F 68.0 °F 88% 29.95 in 10.0 mi SSW 8.1 mph - N/A   Mostly Cloudy
10:15 AM 71.6 °F 68.0 °F 88% 29.96 in 10.0 mi SW 6.9 mph - N/A   Overcast
10:35 AM 73.4 °F 69.8 °F 88% 29.96 in 10.0 mi SSW 5.8 mph - N/A   Overcast
10:55 AM 73.4 °F 69.8 °F 88% 29.96 in 10.0 mi WSW 5.8 mph - N/A   Mostly Cloudy
11:15 AM 73.4 °F 69.8 °F 88% 29.96 in 10.0 mi West 4.6 mph - N/A   Mostly Cloudy
11:35 AM 75.2 °F 69.8 °F 83% 29.96 in 10.0 mi West 6.9 mph - N/A   Mostly Cloudy
11:55 AM 75.2 °F 69.8 °F 83% 29.96 in 10.0 mi WSW 6.9 mph - N/A   Overcast
12:15 PM 75.2 °F 69.8 °F 83% 29.96 in 10.0 mi Calm Calm - N/A   Mostly Cloudy
12:35 PM 77.0 °F 69.8 °F 78% 29.96 in 10.0 mi SW 5.8 mph - N/A   Overcast
12:55 PM 75.2 °F 69.8 °F 83% 29.96 in 10.0 mi SW 6.9 mph - N/A   Overcast
1:15 PM 73.4 °F 69.8 °F 88% 29.97 in 10.0 mi SW 8.1 mph - N/A   Overcast
1:35 PM 73.4 °F 69.8 °F 88% 29.95 in 10.0 mi Calm Calm - N/A   Overcast
1:55 PM 75.2 °F 69.8 °F 83% 29.95 in 10.0 mi SW 5.8 mph - N/A   Overcast
2:15 PM 77.0 °F 69.8 °F 78% 29.95 in 10.0 mi WSW 8.1 mph - N/A   Mostly Cloudy
2:35 PM 77.0 °F 69.8 °F 78% 29.94 in 10.0 mi SW 4.6 mph - N/A   Overcast
2:55 PM 78.8 °F 69.8 °F 74% 29.94 in 10.0 mi West 3.5 mph - N/A   Overcast
3:15 PM 78.8 °F 69.8 °F 74% 29.94 in 10.0 mi Calm Calm - N/A   Overcast
3:35 PM 78.8 °F 69.8 °F 74% 29.94 in 10.0 mi SW 3.5 mph - N/A   Overcast
3:55 PM 77.0 °F 69.8 °F 78% 29.94 in 10.0 mi SW 5.8 mph - N/A   Overcast
4:15 PM 75.2 °F 69.8 °F 83% 29.94 in 10.0 mi SW 13.8 mph 20.7 mph N/A   Overcast
4:35 PM 71.6 °F 68.0 °F 88% 29.94 in 10.0 mi SW 8.1 mph - N/A   Overcast
4:55 PM 73.4 °F 69.8 °F 88% 29.94 in 10.0 mi WSW 4.6 mph - N/A   Overcast
5:15 PM 73.4 °F 69.8 °F 88% 29.94 in 10.0 mi WSW 4.6 mph - N/A   Scattered Clouds
5:35 PM 73.4 °F 69.8 °F 88% 29.94 in 10.0 mi SW 5.8 mph - N/A   Mostly Cloudy
5:55 PM 73.4 °F 69.8 °F 88% 29.94 in 10.0 mi SW 3.5 mph - N/A   Mostly Cloudy
6:15 PM 73.4 °F 69.8 °F 88% 29.94 in 10.0 mi Calm Calm - N/A   Mostly Cloudy
6:35 PM 73.4 °F 69.8 °F 88% 29.94 in 10.0 mi South 5.8 mph - N/A   Overcast
6:55 PM 73.4 °F 69.8 °F 88% 29.93 in 10.0 mi South 5.8 mph - N/A   Overcast
7:15 PM 71.6 °F 69.8 °F 94% 29.94 in 10.0 mi South 5.8 mph - N/A   Overcast
7:35 PM 71.6 °F 69.8 °F 94% 29.94 in 10.0 mi South 5.8 mph - N/A Rain Light Rain
7:55 PM 71.6 °F 69.8 °F 94% 29.94 in 7.0 mi SSW 8.1 mph - N/A Rain Rain
8:15 PM 69.8 °F 68.0 °F 94% 29.94 in 10.0 mi SSW 4.6 mph - N/A   Overcast
8:35 PM 69.8 °F 68.0 °F 94% 29.94 in 10.0 mi South 3.5 mph - N/A   Overcast
8:55 PM 69.8 °F 69.8 °F 100% 29.95 in 10.0 mi Calm Calm - N/A   Overcast
9:15 PM 69.8 °F 69.8 °F 100% 29.95 in 7.0 mi Calm Calm - N/A   Overcast
9:35 PM 69.8 °F 69.8 °F 100% 29.95 in 7.0 mi ESE 3.5 mph - N/A   Overcast
9:55 PM 69.8 °F 69.8 °F 100% 29.96 in 7.0 mi Calm Calm - N/A   Overcast
10:15 PM 69.8 °F 69.8 °F 100% 29.96 in 7.0 mi South 4.6 mph - N/A   Overcast
10:35 PM 69.8 °F 68.0 °F 94% 29.96 in 10.0 mi South 4.6 mph - N/A   Overcast
10:55 PM 69.8 °F 68.0 °F 94% 29.96 in 10.0 mi South 4.6 mph - N/A   Overcast
11:15 PM 69.8 °F 68.0 °F 94% 29.96 in 10.0 mi South 5.8 mph - N/A   Overcast
11:35 PM 69.8 °F 68.0 °F 94% 29.96 in 10.0 mi South 4.6 mph - N/A   Overcast
11:55 PM 69.8 °F 68.0 °F 94% 29.97 in 10.0 mi Calm Calm - N/A   Overcast